Location: Bydgoszcz
(53.1640°N, 17.9142°E)
Time: 09:23:35
(UTC+02:00)

PCSat - Pass Details

Date: 23 April 2024
Orbit: 783 x 792 km, 67.1° (Epoch: 27 May)

Event Time Altitude Azimuth Distance (km) Brightness Sun altitude
Rises 20:37:46 0° 226° (SW) 3,272 13.0 -5.4°
Reaches altitude 10° 20:40:11 10° 229° (SW) 2,348 12.3 -5.7°
Maximum altitude 20:45:34 70° 313° (NW) 845 10.0 -6.4°
Drops below altitude 10° 20:50:59 10° 37° (NE) 2,367 12.0 -7.1°
Sets 20:53:26 0° 40° (NE) 3,301 12.7 -7.4°
